Wind_Speed
27 27 27 25 21 19 19 20 21 23 24 22 22 22 21 21 21 21 20 19 18 16 14 14 15 15 16 16 16 17 18 18 19 19 19 19 19 18 18 18 18 18 18 18 18 19 19 19 19 18 18 18
25 24 23 22 21 20 19 19 19 19 20 21 21 21 19 18 18 18 18 19 19 19 17 16 16 17 18 18 18 18 18 19 19 19 18 18 18 18 18 18 18 18 19 19 19 19 20 20 20 20 20 20
25 27 25 24 23 19 17 16 14 14 16 20 21 21 20 20 19 18 18 19 20 20 19 18 17 18 19 19 20 20 20 19 18 18 18 18 18 19 19 19 19 19 20 20 20 21 21 21 21 21 21 20
28 30 28 25 23 19 17 17 16 15 17 18 19 20 21 22 22 22 22 22 22 22 22 20 19 19 19 20 20 20 20 19 19 18 19 19 19 20 20 20 20 21 21 21 21 22 22 22 22 22 22 21
29 30 28 26 23 19 19 19 19 19 19 20 19 19 20 20 21 23 23 23 23 24 22 19 19 20 20 22 22 22 20 19 19 19 19 20 21 21 21 21 21 21 22 22 22 22 23 23 23 23 22 22
29 27 27 26 24 21 20 20 21 21 22 23 23 22 22 22 21 21 21 20 20 20 19 19 21 22 23 23 24 24 23 21 20 19 20 21 22 22 22 22 22 22 22 23 23 23 23 23 23 23 22 22
31 30 28 26 25 25 24 23 22 22 23 25 26 24 24 24 23 22 21 20 19 18 18 21 23 24 25 25 25 26 26 26 24 23 22 22 23 23 23 23 23 23 23 24 24 24 23 23 23 22 22 21
34 34 33 28 23 24 26 26 23 23 24 25 26 24 24 24 24 23 22 23 23 22 21 22 23 24 26 27 27 27 27 27 27 26 25 25 25 24 25 24 24 24 24 24 24 24 23 22 22 21 20 20
37 35 35 32 25 24 26 26 24 25 26 25 26 25 24 24 25 25 25 26 26 26 26 26 26 27 27 28 29 29 28 28 27 26 26 26 26 25 25 25 25 25 25 25 24 23 22 22 21 20 20 19
38 37 36 35 30 28 27 27 27 26 27 26 26 26 26 26 27 28 28 29 29 29 28 28 28 29 29 29 29 29 28 28 27 27 26 26 26 25 25 25 25 25 25 25 24 23 22 21 21 20 20 19
39 38 34 32 31 31 29 28 27 27 28 27 27 27 27 27 28 29 30 31 32 31 31 30 29 30 30 30 29 28 28 28 27 26 26 25 25 25 25 24 25 25 25 24 24 23 22 22 21 21 20 20
39 37 33 31 30 30 27 26 26 27 29 29 29 29 28 28 28 29 31 32 33 33 33 32 31 31 31 30 29 28 28 27 27 26 26 25 25 25 24 24 24 25 25 25 24 24 23 22 22 21 21 21
38 35 33 32 30 25 22 22 23 25 28 28 30 30 29 28 27 28 29 31 31 32 33 32 31 31 30 29 29 28 28 27 27 26 26 25 25 25 25 25 25 26 26 26 25 25 24 23 23 22 22 22
34 33 31 32 32 28 23 22 24 27 27 27 28 28 29 29 28 28 29 29 30 31 31 30 30 29 29 29 29 29 28 28 28 27 27 26 26 25 26 26 27 27 27 27 26 26 25 25 24 24 23 23
31 30 30 30 32 32 28 24 25 27 27 27 28 28 29 29 29 29 29 29 29 30 30 29 30 29 29 30 30 30 30 29 29 28 28 27 27 27 27 27 28 28 28 28 28 27 26 26 25 25 25 25
31 31 29 28 29 31 30 27 25 26 28 29 29 29 29 29 30 30 30 30 29 29 29 29 30 30 31 31 31 31 31 30 30 29 29 29 28 28 29 29 30 30 30 29 29 28 28 27 27 27 26 26
34 33 30 29 28 28 28 29 28 29 31 33 33 33 33 32 32 32 32 31 31 31 30 30 31 31 32 32 32 32 32 32 31 30 30 30 30 30 30 31 31 32 31 31 30 30 29 29 28 28 28 27
38 37 34 33 33 31 31 32 33 33 34 35 36 36 35 34 34 34 34 33 33 33 32 32 32 32 33 33 33 33 33 33 32 31 31 31 31 31 32 32 33 33 33 32 32 31 31 30 30 29 29 28
39 39 39 39 38 37 38 38 36 37 36 36 37 37 37 37 36 35 35 35 35 35 35 35 35 35 35 35 35 34 34 34 33 33 33 33 33 33 33 34 34 34 34 34 33 33 32 32 31 30 29 28
37 38 40 41 41 41 43 40 38 38 37 37 37 37 38 38 38 37 36 36 36 37 37 37 37 37 37 37 36 36 35 35 34 34 34 35 35 34 35 35 35 36 35 35 35 34 33 32 31 31 30 30
36 37 39 41 42 44 44 41 40 40 38 38 38 37 37 38 39 39 37 35 35 37 38 38 38 38 38 37 37 37 36 36 35 34 35 36 36 36 37 37 37 38 37 37 36 35 34 33 33 32 32 32
36 36 37 39 42 43 43 42 43 42 41 40 39 39 39 38 39 39 38 36 35 36 38 38 38 37 37 37 37 37 36 37 36 35 36 37 38 38 38 39 39 39 38 37 36 35 35 34 34 34 33 33
38 37 37 38 41 42 43 44 45 43 43 42 41 41 41 39 39 39 40 39 36 36 39 40 39 38 37 38 38 38 37 38 37 37 38 39 40 40 40 40 39 39 38 37 36 36 35 35 35 35 34 34
39 39 38 39 41 42 43 43 43 44 45 45 44 43 42 41 40 39 41 42 38 36 39 39 38 39 38 38 39 39 39 39 38 38 39 40 42 42 41 41 40 39 38 37 37 37 37 36 37 36 36 36
40 40 40 40 41 41 42 41 42 43 45 45 43 43 43 42 42 41 42 44 41 38 39 38 39 41 39 39 40 40 40 40 40 39 40 41 43 43 43 42 41 40 39 39 39 38 38 38 38 38 38 37
41 42 41 41 41 41 41 42 43 43 43 43 42 43 43 43 44 43 43 46 44 39 40 41 43 44 42 40 41 41 42 42 42 41 40 41 42 44 45 44 43 41 41 41 40 39 39 40 40 40 39 38
42 42 43 42 42 42 42 43 43 42 42 44 44 44 45 46 46 44 44 46 43 39 41 44 46 46 43 41 41 42 42 43 43 42 42 42 42 44 45 46 45 43 42 42 41 41 42 42 41 41 41 40
44 43 44 44 45 44 43 45 43 42 44 46 47 47 46 46 46 45 45 46 44 41 41 42 45 45 42 39 39 40 41 43 44 43 42 42 43 44 45 47 46 44 44 44 43 43 43 42 42 42 42 40
43 44 43 43 46 46 46 47 46 46 47 47 48 49 48 46 46 47 46 46 45 45 44 43 45 45 42 39 38 39 42 44 45 45 45 43 43 44 45 47 47 46 45 46 45 45 44 44 44 44 43 42
38 41 41 40 42 44 46 48 49 48 46 45 46 46 45 45 47 48 47 46 45 47 48 47 46 47 47 45 44 46 47 46 45 45 46 46 44 44 45 47 48 48 47 47 47 47 46 46 46 45 44 44
33 36 40 40 40 41 44 48 50 48 46 45 45 43 43 44 45 46 45 45 46 47 49 48 46 48 50 49 50 52 49 47 48 46 46 47 46 45 46 47 49 50 48 48 49 49 47 47 47 46 46 46
Wind_Direction
248 248 245 242 242 243 245 244 238 231 222 219 222 217 214 215 212 213 214 216 222 229 240 252 257 257 255 253 252 250 248 248 248 248 247 246 245 243 241 240 239 239 239 240 240 241 241 241 241 240 241 240
241 243 239 235 233 236 245 245 243 240 232 230 229 221 217 219 218 221 225 224 227 229 235 247 256 260 259 260 260 259 256 253 252 250 249 247 247 246 244 243 242 241 241 242 243 243 244 244 244 243 243 243
234 234 233 231 230 233 240 242 247 254 254 247 236 229 224 221 220 222 226 227 227 229 232 238 245 252 257 260 261 260 259 255 252 251 251 249 248 247 246 246 244 244 243 243 244 245 246 246 246 246 245 246
236 237 236 232 234 235 234 236 247 255 263 260 247 240 234 228 225 225 228 228 226 227 229 231 238 248 256 263 264 262 258 254 250 249 250 251 251 249 248 248 246 246 245 245 245 245 246 246 247 246 246 246
236 239 240 236 240 244 238 238 248 251 255 260 256 253 252 247 239 234 236 235 232 228 227 230 239 249 258 265 268 267 262 256 252 250 251 252 253 253 252 251 250 249 248 247 246 245 245 246 247 247 246 246
238 240 242 240 243 245 244 247 252 250 249 253 254 254 255 257 254 249 247 244 239 232 233 241 248 251 255 259 262 265 265 263 259 256 255 256 256 255 255 254 253 252 250 249 247 246 246 245 246 246 245 245
240 241 240 241 242 243 244 247 248 247 247 251 253 251 249 250 253 253 254 253 251 246 244 247 252 255 256 255 257 258 261 261 261 259 258 258 258 257 256 255 253 252 251 249 247 246 245 244 243 243 242 240
241 245 240 237 240 242 243 247 247 246 247 250 252 249 244 243 246 247 249 252 254 254 252 251 255 259 259 258 258 256 255 255 255 254 254 255 255 255 255 254 253 252 250 248 246 244 241 239 237 236 234 233
241 245 242 239 240 238 241 249 252 249 248 250 253 248 239 237 240 243 246 248 250 250 250 250 252 255 256 256 256 254 252 251 250 250 250 250 250 251 251 251 250 249 247 245 242 239 235 231 229 227 227 226
244 244 243 245 245 243 244 248 248 251 253 252 251 247 240 237 238 241 243 245 246 248 249 250 252 254 256 255 254 252 249 249 248 249 249 248 248 248 248 247 246 244 242 239 236 232 227 224 223 223 224 225
246 242 243 248 252 252 253 251 246 249 253 254 250 246 243 241 241 242 244 246 247 248 248 248 251 253 255 255 254 252 249 248 248 249 249 248 248 248 247 245 242 239 235 232 229 226 223 222 222 223 225 227
245 244 247 249 252 253 253 255 253 250 251 252 250 248 247 246 245 245 246 248 249 250 249 248 248 249 252 253 253 252 250 249 250 250 249 249 248 248 245 242 237 233 229 227 225 224 224 224 224 226 228 231
246 251 253 246 247 250 250 254 256 253 252 252 250 251 253 253 252 251 251 251 251 252 253 252 251 251 253 254 254 254 252 251 251 250 250 248 248 246 242 237 233 229 227 225 225 225 226 227 228 230 232 234
244 250 252 247 246 248 247 249 255 256 257 258 256 255 255 256 257 257 257 257 255 255 256 257 257 256 256 257 256 255 254 253 252 251 250 249 247 244 239 234 230 228 227 226 227 228 229 231 232 234 235 237
244 246 250 250 250 249 244 242 251 255 255 259 259 257 258 258 259 260 261 262 261 259 259 259 259 259 259 258 257 255 254 252 252 251 249 248 246 242 238 233 230 229 229 229 229 231 232 234 235 236 237 238
246 247 249 249 251 251 244 238 244 251 255 259 261 261 261 261 262 263 264 264 264 264 262 262 262 261 260 258 257 256 254 252 251 249 247 246 244 241 237 233 232 231 232 232 232 233 234 236 237 237 238 239
246 247 247 245 245 246 244 244 245 250 255 258 262 263 262 263 264 264 265 265 265 265 264 264 264 264 262 259 258 256 255 253 252 250 247 245 243 240 236 234 233 233 234 234 234 235 236 237 237 238 239 240
246 246 245 243 242 240 241 244 247 250 253 256 260 261 261 260 261 262 263 263 263 264 264 264 264 264 263 261 258 256 254 253 252 251 248 246 244 241 238 236 235 235 236 236 237 237 237 237 238 239 240 241
246 248 247 247 245 241 241 243 247 252 253 256 259 260 261 261 260 259 259 259 259 260 260 260 261 261 261 259 257 255 254 253 252 251 248 246 244 242 239 237 237 238 238 238 238 238 238 238 238 240 241 242
247 248 248 250 250 248 248 249 251 254 255 256 257 257 261 263 261 259 257 258 258 258 258 258 258 258 257 256 254 253 252 252 251 249 247 245 244 242 240 238 238 239 239 239 239 238 238 238 239 240 241 242
248 247 248 249 250 251 253 255 255 256 257 256 257 256 257 260 262 261 257 255 258 261 260 259 257 256 256 254 253 252 251 251 250 249 247 244 243 241 240 239 238 238 239 239 239 239 239 239 239 240 241 242
250 248 248 247 248 249 251 252 254 255 256 255 257 256 255 258 261 263 262 256 255 259 262 263 261 258 256 255 254 252 251 250 251 250 248 245 242 241 240 239 238 238 239 239 240 240 240 240 240 241 242 242
250 249 247 246 246 247 248 248 248 250 252 253 253 253 254 256 258 260 262 261 256 255 260 264 264 262 258 257 255 253 251 250 250 250 248 245 242 241 240 239 239 239 239 240 240 240 240 241 241 242 243 243
248 249 247 246 245 245 246 247 246 247 248 247 248 250 252 254 256 256 259 262 260 255 256 258 263 266 261 257 256 253 251 250 250 248 246 244 242 240 240 240 240 240 240 240 240 240 241 241 243 243 244 243
247 248 249 248 248 247 248 248 247 248 247 246 246 249 253 253 254 256 257 261 262 257 252 253 262 267 265 261 258 254 252 250 249 248 247 245 243 242 241 241 241 241 241 241 240 241 241 242 243 244 244 244
248 246 248 248 249 249 249 250 249 249 250 251 251 250 252 253 253 255 257 260 262 259 253 254 261 265 267 267 263 256 253 251 251 250 250 249 246 244 242 242 242 241 241 241 241 241 242 242 243 244 245 245
253 248 246 246 248 247 247 249 249 250 250 250 252 252 252 253 253 254 256 258 260 258 255 256 259 259 260 265 267 262 257 255 254 252 252 252 249 246 244 243 242 241 242 242 242 241 241 242 243 244 245 246
258 255 249 246 246 246 246 246 246 247 246 244 244 247 248 251 251 251 254 255 257 258 255 256 257 256 256 260 263 264 263 262 260 257 255 253 252 249 245 244 243 241 242 242 242 242 242 243 244 245 245 245
260 260 256 250 247 247 247 247 246 245 245 243 243 243 243 246 248 249 250 252 255 257 256 255 256 256 258 258 257 263 267 266 264 262 259 255 254 252 247 245 244 241 241 242 242 243 243 244 245 246 246 246
263 262 259 255 249 247 248 249 248 247 247 245 245 246 245 245 248 249 249 249 252 254 255 256 256 254 256 255 256 261 263 262 261 261 261 258 256 254 251 247 245 242 241 241 243 243 243 244 245 247 248 248
268 266 263 259 252 247 248 249 249 249 249 248 246 246 245 244 246 249 249 249 251 252 253 255 254 254 254 252 254 255 253 253 256 259 263 262 259 257 253 250 248 245 242 241 243 243 243 245 246 246 248 249
Height
3103 3103 3104 3105 3105 3106 3106 3106 3106 3106 3107 3107 3107 3108 3109 3109 3110 3111 3112 3114 3115 3116 3118 3120 3121 3122 3123 3125 3126 3127 3128 3129 3129 3129 3129 3130 3131 3131 3132 3133 3134 3134 3135 3135 3136 3136 3137 3137 3138 3139 3140 3140
3102 3102 3102 3103 3104 3104 3104 3105 3106 3106 3107 3107 3107 3108 3108 3109 3109 3110 3111 3112 3114 3115 3116 3118 3119 3120 3122 3123 3125 3126 3127 3128 3128 3128 3128 3128 3129 3130 3130 3131 3132 3133 3133 3134 3134 3134 3135 3135 3136 3137 3138 3138
3101 3101 3101 3101 3102 3103 3103 3104 3105 3105 3106 3107 3108 3108 3109 3109 3109 3110 3111 3112 3113 3114 3115 3117 3118 3119 3121 3123 3124 3125 3126 3126 3127 3127 3127 3127 3128 3128 3129 3129 3130 3131 3131 3132 3132 3133 3133 3133 3134 3135 3136 3136
3100 3100 3100 3100 3101 3102 3102 3103 3104 3105 3105 3106 3107 3108 3108 3109 3109 3110 3110 3111 3113 3114 3115 3117 3118 3119 3120 3122 3123 3124 3124 3125 3125 3126 3126 3126 3126 3127 3127 3128 3128 3129 3129 3130 3130 3131 3131 3131 3132 3133 3133 3134
3098 3098 3098 3099 3099 3100 3101 3102 3103 3104 3104 3106 3106 3107 3107 3108 3109 3110 3110 3111 3112 3114 3114 3116 3117 3118 3120 3121 3121 3122 3123 3123 3123 3124 3124 3124 3125 3125 3125 3126 3126 3127 3127 3128 3128 3129 3129 3129 3130 3130 3131 3132
3095 3096 3096 3097 3098 3099 3099 3101 3102 3102 3104 3105 3105 3106 3107 3107 3107 3108 3109 3110 3111 3112 3113 3115 3116 3118 3119 3120 3120 3120 3121 3122 3122 3123 3123 3123 3123 3123 3124 3124 3124 3125 3125 3126 3126 3127 3127 3127 3128 3128 3129 3130
3092 3093 3094 3095 3095 3097 3098 3100 3100 3101 3102 3103 3104 3105 3106 3106 3106 3107 3108 3108 3109 3111 3112 3113 3114 3116 3118 3119 3118 3119 3119 3120 3121 3121 3122 3122 3122 3122 3122 3122 3122 3123 3123 3124 3124 3125 3125 3125 3126 3126 3127 3127
3090 3091 3091 3092 3094 3095 3097 3098 3099 3100 3101 3101 3102 3103 3105 3105 3106 3106 3106 3107 3108 3109 3110 3111 3112 3113 3115 3116 3116 3117 3118 3118 3119 3119 3120 3120 3120 3120 3120 3121 3121 3121 3121 3122 3122 3123 3123 3124 3124 3124 3125 3126
3089 3089 3089 3090 3092 3093 3094 3096 3097 3098 3098 3099 3100 3101 3103 3104 3104 3105 3105 3106 3106 3107 3109 3110 3111 3111 3113 3114 3114 3115 3115 3116 3117 3117 3118 3118 3118 3119 3119 3119 3119 3119 3119 3120 3120 3121 3121 3122 3123 3123 3124 3124
3087 3087 3087 3088 3089 3090 3091 3093 3095 3096 3096 3097 3098 3099 3100 3101 3102 3102 3103 3104 3104 3105 3107 3108 3109 3109 3110 3112 3112 3112 3113 3113 3114 3115 3115 3116 3116 3116 3116 3117 3117 3117 3117 3118 3118 3119 3120 3120 3121 3122 3122 3123
3084 3085 3086 3087 3088 3088 3089 3091 3092 3093 3094 3094 3096 3096 3097 3098 3099 3100 3100 3101 3102 3103 3104 3106 3106 3107 3108 3109 3109 3110 3110 3111 3111 3112 3112 3113 3113 3113 3114 3114 3114 3115 3115 3116 3117 3117 3118 3119 3120 3120 3121 3121
3081 3082 3084 3084 3085 3086 3087 3088 3089 3090 3091 3092 3093 3094 3094 3096 3097 3098 3098 3099 3099 3100 3101 3102 3103 3104 3105 3105 3106 3107 3107 3108 3108 3109 3109 3110 3110 3111 3111 3112 3112 3113 3114 3114 3115 3116 3116 3117 3118 3119 3119 3120
3079 3079 3080 3081 3082 3084 3085 3086 3087 3088 3089 3090 3091 3091 3092 3093 3094 3095 3095 3096 3097 3097 3098 3099 3100 3101 3102 3102 3103 3103 3104 3105 3105 3106 3107 3107 3108 3108 3109 3110 3110 3111 3112 3112 3113 3114 3115 3115 3116 3117 3117 3118
3077 3077 3078 3079 3080 3082 3083 3084 3085 3086 3087 3087 3088 3089 3090 3090 3091 3092 3093 3093 3094 3094 3095 3096 3097 3098 3099 3099 3100 3100 3101 3102 3103 3104 3104 3105 3105 3106 3106 3107 3108 3109 3110 3111 3111 3112 3113 3113 3114 3115 3116 3116
3074 3075 3076 3077 3078 3079 3080 3081 3082 3083 3084 3085 3086 3086 3087 3087 3088 3089 3090 3091 3092 3092 3093 3093 3094 3095 3096 3096 3097 3098 3099 3100 3100 3101 3101 3102 3103 3103 3104 3105 3106 3107 3108 3109 3109 3110 3111 3111 3112 3113 3114 3114
3072 3072 3073 3075 3076 3077 3078 3078 3080 3080 3081 3082 3083 3084 3084 3084 3085 3086 3087 3088 3089 3090 3090 3091 3091 3092 3093 3094 3094 3095 3096 3097 3097 3098 3099 3099 3100 3101 3101 3102 3104 3105 3105 3106 3107 3108 3108 3109 3110 3110 3111 3112
3069 3069 3071 3072 3073 3074 3075 3076 3077 3078 3078 3079 3079 3080 3081 3081 3082 3083 3084 3085 3086 3087 3088 3088 3088 3089 3090 3091 3092 3092 3093 3093 3094 3095 3096 3097 3097 3098 3099 3100 3101 3102 3103 3104 3105 3105 3106 3106 3107 3108 3109 3109
3066 3067 3068 3069 3069 3071 3072 3072 3073 3074 3075 3075 3076 3077 3077 3078 3078 3080 3081 3082 3082 3083 3084 3084 3085 3086 3087 3088 3089 3089 3090 3090 3091 3092 3093 3094 3094 3095 3096 3097 3098 3099 3100 3101 3102 3102 3103 3104 3104 3105 3106 3107
3063 3064 3065 3065 3066 3067 3067 3068 3070 3070 3071 3072 3072 3073 3073 3074 3075 3076 3077 3078 3078 3079 3080 3080 3081 3082 3083 3084 3085 3086 3086 3087 3088 3089 3090 3090 3091 3092 3093 3094 3095 3096 3097 3098 3099 3099 3100 3101 3102 3102 3103 3104
3061 3061 3062 3062 3063 3063 3064 3066 3067 3067 3068 3069 3069 3069 3069 3070 3071 3072 3073 3074 3074 3075 3075 3076 3077 3078 3079 3080 3081 3082 3082 3083 3084 3085 3086 3087 3088 3089 3090 3091 3092 3092 3094 3094 3095 3096 3097 3098 3099 3099 3100 3101
3056 3057 3058 3059 3059 3059 3060 3062 3064 3063 3064 3066 3066 3066 3066 3067 3068 3069 3070 3071 3071 3071 3071 3072 3073 3074 3075 3076 3077 3078 3079 3079 3080 3081 3082 3083 3084 3085 3086 3087 3088 3088 3090 3091 3092 3093 3094 3095 3096 3096 3097 3097
3051 3053 3054 3054 3055 3055 3056 3058 3059 3060 3060 3062 3063 3063 3063 3064 3065 3066 3066 3067 3068 3068 3067 3068 3069 3070 3071 3072 3073 3074 3075 3075 3076 3077 3078 3079 3080 3081 3082 3083 3084 3085 3086 3087 3089 3089 3090 3091 3092 3092 3093 3094
3046 3047 3049 3049 3050 3051 3051 3053 3054 3055 3056 3057 3058 3059 3060 3061 3062 3063 3063 3063 3065 3065 3064 3064 3065 3067 3068 3068 3069 3070 3071 3071 3072 3073 3074 3075 3076 3077 3078 3079 3080 3081 3082 3084 3085 3086 3087 3088 3088 3089 3090 3091
3042 3043 3044 3044 3044 3045 3046 3047 3049 3050 3051 3052 3054 3055 3056 3058 3059 3059 3058 3059 3061 3062 3061 3060 3061 3062 3064 3064 3064 3066 3067 3067 3069 3069 3070 3070 3071 3073 3074 3075 3076 3078 3079 3081 3082 3082 3083 3084 3085 3086 3086 3087
3038 3038 3039 3040 3040 3041 3042 3043 3044 3045 3046 3047 3050 3052 3053 3054 3055 3055 3055 3055 3057 3058 3058 3057 3056 3058 3060 3060 3060 3061 3062 3063 3064 3065 3066 3067 3068 3069 3070 3071 3073 3074 3076 3077 3078 3079 3080 3081 3081 3082 3082 3083
3033 3034 3035 3035 3036 3037 3038 3038 3039 3040 3042 3044 3046 3048 3049 3050 3050 3050 3051 3051 3053 3054 3054 3054 3053 3054 3055 3056 3057 3058 3058 3058 3059 3061 3062 3063 3064 3065 3066 3067 3069 3070 3071 3072 3074 3075 3076 3076 3077 3077 3078 3079
3026 3028 3030 3030 3030 3032 3033 3033 3034 3036 3037 3039 3040 3041 3043 3044 3045 3046 3047 3048 3049 3050 3050 3050 3050 3050 3051 3052 3052 3053 3054 3054 3055 3057 3058 3059 3060 3061 3062 3062 3064 3066 3067 3068 3070 3070 3071 3071 3073 3073 3074 3075
3021 3022 3024 3025 3025 3026 3027 3026 3028 3029 3030 3031 3033 3034 3036 3038 3040 3041 3043 3044 3044 3045 3046 3046 3047 3047 3048 3048 3048 3049 3050 3050 3051 3053 3054 3055 3055 3057 3057 3058 3060 3062 3063 3063 3064 3065 3066 3067 3068 3068 3069 3071
3017 3017 3017 3019 3019 3020 3021 3021 3022 3023 3023 3025 3026 3028 3031 3033 3034 3036 3038 3039 3039 3040 3041 3042 3043 3044 3044 3044 3044 3044 3045 3047 3047 3048 3049 3050 3051 3052 3053 3054 3055 3057 3058 3058 3059 3060 3062 3062 3062 3063 3065 3067
3013 3013 3013 3013 3013 3014 3015 3016 3016 3017 3019 3020 3022 3025 3028 3029 3030 3031 3032 3033 3034 3035 3036 3037 3039 3039 3039 3040 3041 3040 3041 3042 3043 3043 3044 3046 3047 3047 3048 3049 3049 3051 3053 3053 3054 3055 3056 3057 3058 3059 3061 3062
3010 3009 3009 3008 3008 3009 3010 3010 3011 3012 3014 3016 3018 3021 3023 3023 3024 3026 3027 3028 3029 3030 3031 3032 3033 3034 3034 3035 3036 3036 3036 3036 3038 3039 3039 3041 3042 3042 3043 3043 3043 3045 3047 3049 3048 3050 3052 3053 3054 3055 3056 3057